Regional Weather Roundup
Issued by NWS

Home | Current Version | Previous Version | Graphics & Text | Print | Product List | Glossary Off
Versions: 1 2 3 4 5 6 7 8 9 10 11 12 13 14 15 16 17 18 19 20 21 22 23 24 25 26 27 28 29 30 31 32 33 34 35 36 37 38 39 40 41 42 43 44 45 46 47 48 49 50

000
ASUS43 KDMX 271006
RWRIA

WEATHER ROUNDUP FOR IOWA
NATIONAL WEATHER SERVICE DES MOINES IA
500 AM CDT MON MAR 27 2017

NOTE: "FAIR" INDICATES FEW OR NO CLOUDS BELOW 12,000 FEET WITH NO
SIGNIFICANT WEATHER AND/OR OBSTRUCTIONS TO VISIBILITY.

* - THESE STATIONS ARE NOT NWS STATIONS...THUS NOT UNDER NWS
QUALITY CONTROL.  THEY ALSO DO NOT REPORT WEATHER SUCH
AS PRECIPITATION OR FOG.

IAZ001>003-012>014-020>022-031>034-043>046-271100-
   NORTHWEST IOWA

CITY           SKY/WX    TMP DP  RH WIND       PRES   REMARKS
CARROLL *      CLOUDY    39  37  93 NW9       29.94S FOG     WCI  33
CHEROKEE *     CLOUDY    40  40  97 N3        29.95S
LE MARS *      CLOUDY    41  39  93 CALM      29.96R
ORANGE CITY *  MOCLDY    39  37  93 CALM      29.94S
SHELDON *      CLOUDY    37  37 100 N6        29.93S FOG     WCI  33
SIOUX CITY     CLOUDY    43  40  89 CALM      29.95S
SPENCER        CLOUDY    39  38  96 CALM      29.95S
STORM LAKE *   CLOUDY    39  39 100 N6        29.94R WCI  35
$$

IAZ055>058-069>071-079>083-090>094-271100-
   SOUTHWEST IOWA

CITY           SKY/WX    TMP DP  RH WIND       PRES   REMARKS
ATLANTIC *     CLOUDY    43  43 100 N7        29.93R
AUDUBON *      CLOUDY    41  39  93 N5        29.94R FOG
CLARINDA *     CLOUDY    45  45 100 NE7       29.93S
COUNCIL BLFS * CLOUDY    45  45 100 N5        29.93S
CRESTON *      CLOUDY    43  43 100 NE8       29.93R
HARLAN  *      CLOUDY    43  43 100 N7        29.97R
LAMONI         CLOUDY    45  44  97 N6        29.90R
RED OAK *      CLOUDY    45  43  93 N7        29.92F
SHENANDOAH *   CLOUDY    45  43  93 NE7       29.92S
$$

IAZ047>049-059>061-072>074-084-271100-
   CENTRAL IOWA

CITY           SKY/WX    TMP DP  RH WIND       PRES   REMARKS
AMES           CLOUDY    42  41  96 N8        29.93R
ANKENY *       CLOUDY    43  41  93 N6        29.93S
BOONE *        CLOUDY    39  39 100 N9        29.92S WCI  33
CHARITON *     CLOUDY    45  45 100 N7        29.91R FOG
DES MOINES     DRIZZLE   44  43  96 N5        29.92R
GRINNELL*      CLOUDY    43  42  97 N3        29.92R FOG
MARSHALLTOWN   FOG       42  42 100 N5        29.91S VSB 1/2
NEWTON *       FOG       43  43 100 N6G12     29.91R VSB 3/4
PELLA *        CLOUDY    44  43  98 N6        29.93R FOG
PERRY *        CLOUDY    41  40  95 NW6       29.93S FOG
$$

IAZ004>006-015-016-023>025-035-036-271100-
   NORTH CENTRAL IOWA

CITY           SKY/WX    TMP DP  RH WIND       PRES   REMARKS
ALGONA *       CLOUDY    39  39 100 N6        29.94S WCI  35
CLARION *      CLOUDY    39  39 100 N9        29.94R WCI  33
ESTHERVILLE    CLOUDY    38  38 100 NW7       29.94F WCI  33
FORT DODGE *   CLOUDY    39  36  87 N3        29.95R
MASON CITY     CLOUDY    39  38  96 NW7       29.95R WCI  34
FOREST CITY *  CLOUDY    37  37 100 NW8       29.94R FOG     WCI  31
WEBSTER CITY * CLOUDY    41  39  93 N8        29.92R
IOWA FALLS *   CLOUDY    42  41  97 N3        29.93S FOG
$$

IAZ007>011-017>019-026>030-037>042-050>054-066-271100-
   NORTHEAST IOWA

CITY           SKY/WX    TMP DP  RH WIND       PRES   REMARKS
CEDAR RAPIDS   CLOUDY    43  43 100 NW7       29.89S FOG
CHARLES CITY * CLOUDY    41  41 100 NW5       29.92S FOG
CLINTON *      CLOUDY    46  45  96 W3        29.90S FOG
DECORAH *      CLOUDY    39  39 100 CALM      29.90F FOG
DUBUQUE        CLOUDY    43  42  97 N3        29.89F FOG
MONTICELLO *   FOG       45  45 100 CALM      29.90S VSB 1/2
OELWEIN *      CLOUDY    41  41 100 N6        29.91S
WATERLOO       CLOUDY    42  40  92 NW5       29.91F FOG
$$

IAZ064-065-067-068-078-271100-
   EAST CENTRAL IOWA

CITY           SKY/WX    TMP DP  RH WIND       PRES   REMARKS
DAVENPORT      CLOUDY    46  46 100 NW5       29.90S FOG
IOWA CITY      CLOUDY    47  44  90 NW5       29.91S
MUSCATINE *    CLOUDY    46  46 100 CALM      29.91S FOG
QUAD CITIES    CLOUDY    48  45  89 W3        29.89F FOG
$$

IAZ062-063-075>077-085>089-095>099-271100-
   SOUTHEAST IOWA

CITY           SKY/WX    TMP DP  RH WIND       PRES   REMARKS
BURLINGTON     CLOUDY    47  47 100 CALM      29.89S FOG
FAIRFIELD *    CLOUDY    45  45 100 N5        29.89S FOG
FORT MADISON * CLOUDY    46  46 100 CALM      29.91R FOG
KEOKUK *       CLOUDY    46  45  93 N5        29.89R
OSKALOOSA *    CLOUDY    44  43  97 CALM      29.91S FOG
OTTUMWA        CLOUDY    45  45 100 NW7       29.90S FOG
WASHINGTON *   FOG       45  45 100 NW5       29.91S VSB 1/2
$$

ABBREVIATIONS USED IN REMARKS
   TC - TEMPERATURES IN CELSIUS
  WCI - WIND CHILL INDEX
   HX - HEAT INDEX
  VSB - VISIBILITY
$$





USA.gov is the U.S. government's official web portal to all federal, state and local government web resources and services.